TimePDT,TemperatureF,Dew PointF,Humidity,Sea Level PressureIn,VisibilityMPH,Wind Direction,Wind SpeedMPH,Gust SpeedMPH,PrecipitationIn,Events,Conditions,WindDirDegrees,DateUTC
12:53 AM,39.0,25.0,57,30.32,10.0,Calm,Calm,-,N/A,,Clear,0,2012-10-04 07:53:00
1:53 AM,35.1,25.0,67,30.33,10.0,Calm,Calm,-,N/A,,Clear,0,2012-10-04 08:53:00
2:53 AM,32.0,24.1,73,30.32,10.0,Calm,Calm,-,N/A,,Clear,0,2012-10-04 09:53:00
3:53 AM,32.0,21.9,66,30.32,9.0,Calm,Calm,-,N/A,,Clear,0,2012-10-04 10:53:00
4:53 AM,32.0,23.0,69,30.32,10.0,Calm,Calm,-,N/A,,Clear,0,2012-10-04 11:53:00
5:53 AM,30.0,21.9,72,30.33,10.0,Calm,Calm,-,N/A,,Clear,0,2012-10-04 12:53:00
6:53 AM,30.0,23.0,75,30.34,9.0,NNE,6.9,-,N/A,,Clear,30,2012-10-04 13:53:00
7:53 AM,33.1,24.1,70,30.36,7.0,Calm,Calm,-,N/A,,Clear,0,2012-10-04 14:53:00
8:53 AM,41.0,28.0,60,30.36,9.0,Calm,Calm,-,N/A,,Clear,0,2012-10-04 15:53:00
9:53 AM,48.0,28.9,48,30.36,5.0,Calm,Calm,-,N/A,,Haze,0,2012-10-04 16:53:00
10:53 AM,55.0,28.0,35,30.35,6.0,SSW,3.5,-,N/A,,Haze,210,2012-10-04 17:53:00
11:53 AM,57.9,27.0,31,30.34,7.0,SSW,4.6,-,N/A,,Clear,210,2012-10-04 18:53:00
12:53 PM,61.0,27.0,27,30.32,10.0,Variable,3.5,-,N/A,,Clear,0,2012-10-04 19:53:00
1:53 PM,64.9,25.0,22,30.30,10.0,SSE,6.9,-,N/A,,Clear,150,2012-10-04 20:53:00
2:53 PM,66.0,23.0,20,30.30,10.0,SSE,10.4,18.4,N/A,,Clear,160,2012-10-04 21:53:00
3:53 PM,64.9,21.9,19,30.29,10.0,SSE,8.1,-,N/A,,Clear,150,2012-10-04 22:53:00
4:53 PM,64.0,21.9,20,30.29,10.0,South,8.1,-,N/A,,Clear,180,2012-10-04 23:53:00
5:53 PM,60.1,23.0,24,30.29,10.0,South,5.8,-,N/A,,Clear,180,2012-10-05 00:53:00
6:53 PM,50.0,24.1,36,30.31,10.0,Calm,Calm,-,N/A,,Clear,0,2012-10-05 01:53:00
7:53 PM,44.1,26.1,49,30.31,10.0,NE,4.6,-,N/A,,Clear,50,2012-10-05 02:53:00
8:53 PM,46.0,25.0,44,30.31,10.0,NNE,5.8,-,N/A,,Clear,20,2012-10-05 03:53:00
9:53 PM,42.1,24.1,49,30.32,6.0,NNW,4.6,-,N/A,,Haze,340,2012-10-05 04:53:00
10:53 PM,39.0,23.0,53,30.32,6.0,Calm,Calm,-,N/A,,Haze,0,2012-10-05 05:53:00
11:53 PM,39.9,21.9,49,30.33,7.0,South,4.6,-,N/A,,Clear,180,2012-10-05 06:53:00